Ithaca, NY

9:14 PM EST on February 09, 2016 (GMT -0500)
Tompkins County

Weather History for KITH - November, 2012

Change the Weather History Date:

Thursday, November 8, 2012

  Actual Average Record
Temperature  
Mean Temperature 32 °F -  
Max Temperature 37 °F 46 °F 71 °F (1938)
Min Temperature 27 °F 32 °F 18 °F (1959)
Degree Days  
Heating Degree Days 33    
Moisture  
Dew Point 24 °F    
Average Humidity 73    
Maximum Humidity 84    
Minimum Humidity 60    
Precipitation  
Precipitation 0.00 in - - ()
Sea Level Pressure  
Sea Level Pressure 30.05 in    
Wind  
Wind Speed 11 mph (NNW)    
Max Wind Speed 20 mph    
Max Gust Speed 23 mph    
Visibility 10 miles    
Events      
Averages and records for this station are not official NWS values.
T = Trace of Precipitation, MM = Missing Value Source: NWS Daily Summary

Daily Weather History Graph

Daily Weather History Graph

Search for Another Location

Airport or City:

Trip Planner

Search our weather history database for the weather conditions in past years. The results will help you decide how hot, cold, wet, or windy it might be!

Date:

Astronomy

Nov. 08, 2012 Rise Set
Actual Time 6:48 AM EST 4:49 PM EST
Civil Twilight 6:18 AM EST 5:19 PM EST
Nautical Twilight 5:45 AM EST 5:53 PM EST
Astronomical Twilight 5:12 AM EST 6:26 PM EST
Moon 12:34 AM EST (11/8) 1:36 PM EST (11/8)
Length of Visible Light 11h 00m
Length of Day
10h 01m
Waning Crescent, 33% of the Moon is Illuminated
Nov 8
Waning Crescent
Nov 13
New
Nov 20
First Quarter
Nov 28
Full
Dec 6
Last Quarter

Hourly Weather History & Observations

Time (EST) Temp. Windchill Dew Point Humidity Pressure Visibility Wind Dir Wind Speed Gust Speed Precip Events Conditions
12:56 AM 28.0 °F 19.3 °F 22.1 °F 78% 30.01 in 10.0 mi NNW 9.2 mph - N/A   Clear
2:56 AM 27.1 °F 18.9 °F 23.0 °F 84% 30.01 in 10.0 mi NW 8.1 mph - N/A   Clear
3:56 AM 28.0 °F 18.6 °F 23.0 °F 81% 30.02 in 10.0 mi NNW 10.4 mph - N/A   Clear
4:56 AM 27.1 °F 16.9 °F 23.0 °F 84% 30.03 in 10.0 mi NNW 11.5 mph - N/A   Clear
5:56 AM 27.1 °F 15.9 °F 22.1 °F 81% 30.03 in 10.0 mi NNW 13.8 mph 18.4 mph N/A   Clear
6:27 AM 28.4 °F 18.5 °F 21.2 °F 74% 30.00 in 10.0 mi NNW 11.5 mph 19.6 mph N/A   Clear
6:56 AM 27.1 °F 14.9 °F 22.1 °F 81% 30.05 in 10.0 mi NNW 16.1 mph - N/A   Partly Cloudy
7:56 AM 29.1 °F 17.1 °F 23.0 °F 78% 30.06 in 10.0 mi NW 17.3 mph 23.0 mph N/A   Scattered Clouds
8:56 AM 31.1 °F 21.4 °F 25.2 °F 79% 30.07 in 10.0 mi NNW 12.7 mph - N/A   Mostly Cloudy
9:56 AM 34.0 °F 22.7 °F 26.1 °F 73% 30.06 in 10.0 mi NW 19.6 mph - N/A   Mostly Cloudy
10:56 AM 36.9 °F 27.1 °F 27.1 °F 68% 30.06 in 10.0 mi NNW 17.3 mph 21.9 mph N/A   Mostly Cloudy
11:56 AM 36.9 °F 28.2 °F 27.1 °F 68% 30.05 in 10.0 mi NW 13.8 mph 21.9 mph N/A   Mostly Cloudy
12:56 PM 37.9 °F 29.2 °F 26.1 °F 62% 30.04 in 10.0 mi NNW 15.0 mph - N/A   Mostly Cloudy
1:56 PM 37.9 °F 29.2 °F 25.2 °F 60% 30.04 in 10.0 mi North 15.0 mph 23.0 mph N/A   Mostly Cloudy
2:03 PM 37.4 °F 27.5 °F 26.6 °F 65% 30.00 in 10.0 mi NW 18.4 mph - N/A   Scattered Clouds
2:56 PM 36.9 °F 27.1 °F 25.2 °F 63% 30.04 in 10.0 mi NW 17.3 mph 23.0 mph N/A   Scattered Clouds
3:56 PM 34.9 °F 25.7 °F 25.2 °F 68% 30.05 in 10.0 mi NNW 13.8 mph 21.9 mph N/A   Scattered Clouds
4:56 PM 32.9 °F 25.3 °F 24.1 °F 70% 30.06 in 10.0 mi NNW 9.2 mph - N/A   Partly Cloudy
5:56 PM 31.1 °F 23.7 °F 23.0 °F 72% 30.09 in 10.0 mi NNW 8.1 mph - N/A   Clear
6:56 PM 31.1 °F 23.1 °F 24.1 °F 75% 30.11 in 10.0 mi NNW 9.2 mph - N/A   Clear
7:56 PM 29.1 °F 22.1 °F 23.0 °F 78% 30.11 in 10.0 mi NNW 6.9 mph - N/A   Clear
8:56 PM 28.0 °F 20.0 °F 22.1 °F 78% 30.10 in 10.0 mi NW 8.1 mph - N/A   Clear
9:56 PM 30.0 °F 23.2 °F 21.0 °F 69% 30.09 in 10.0 mi NW 6.9 mph - N/A   Scattered Clouds
10:05 PM 30.2 °F 24.3 °F 21.2 °F 69% 30.05 in 10.0 mi NNW 5.8 mph - N/A   Mostly Cloudy
10:43 PM 28.4 °F 21.2 °F 21.2 °F 74% 30.05 in 10.0 mi NNW 6.9 mph - N/A   Scattered Clouds
10:56 PM 29.1 °F 24.1 °F 22.1 °F 75% 30.09 in 10.0 mi NNW 4.6 mph - N/A   Clear
11:56 PM 29.1 °F - 22.1 °F 75% 30.09 in 10.0 mi Calm Calm - N/A   Clear